Regional Weather Roundup
Issued by NWS Goodland, KS

Home | Current Version | Previous Version | Graphics & Text | Print | Product List | Glossary On
Versions: 1 2 3 4 5 6 7 8 9 10 11 12 13 14 15 16 17 18 19 20 21 22 23 24 25 26 27 28 29 30 31 32 33 34 35 36 37 38 39 40 41 42 43 44 45 46 47 48 49 50
000
ASUS43 KGLD 300659
RWRGLD

GOODLAND FORECAST AREA HOURLY WEATHER ROUNDUP
NATIONAL WEATHER SERVICE GOODLAND KS
100 AM MDT THU JUL 30 2015

...OFFICIAL OBSERVATIONS...

CITY           SKY/WX    TMP DP  RH WIND       PRES   REMARKS
GOODLAND KS    PTCLDY    59  55  87 SE6       30.29S
HILL CITY KS   MOCLDY    64  60  87 NE5       30.25R
IMPERIAL NEB   CLEAR     59  50  72 S7        30.26F
MCCOOK NEB     CLEAR     62  54  74 SE3       30.25S
AKRON CO       PTCLDY    61  52  72 S14       30.30F
BURLINGTON CO  CLEAR     60  55  83 S8        30.32R
LIMON CO       MOCLDY    58  54  86 SE3       30.36S
$$

...UNOFFICIAL OBSERVATIONS...

CITY           SKY/WX    TMP DP  RH WIND       PRES   REMARKS
COLBY KS       CLEAR     64  57  77 CALM      30.29S
NORTON KS      CLEAR     57  52  82 CALM      30.24
SHARON SPRINGS   N/A     62  59  89 SE7         N/A
KIT CARSON CO    N/A     64  58  82 MISG        N/A
YUMA CO          N/A     58  51  78 CALM        N/A
$$



USA.gov is the U.S. government's official web portal to all federal, state and local government web resources and services.